Regional Weather Roundup
Issued by NWS Grand Forks, ND

Home | Current Version | Previous Version | Text Only | Print | Product List | Glossary Off
Versions: 1 2 3 4 5 6 7 8 9 10 11 12 13 14 15 16 17 18 19 20 21 22 23 24 25 26 27 28 29 30 31 32 33 34 35 36 37 38 39 40 41 42 43 44 45 46 47 48 49 50

000
ASUS43 KFGF 010910
RWRFGF
PRAIRIE TO PINES  WEATHER ROUNDUP
NATIONAL WEATHER SERVICE EASTERN NORTH DAKOTA/GRAND FORKS ND
300 AM CST SUN FEB 01 2015

 **SATELLITE DATA USED TO AUGMENT SKY COVER AT AUTOMATED STATIONS**
 *****  WEATHER ACROSS EASTERN NORTH DAKOTA  *****

CITY           SKY/WX    TMP DP  RH WIND       PRES   REMARKS
GRAND FORKS    PTCLDY   -10 -18  67 N15       30.57R WCI -32
GRAND FRKS AFB PTCLDY   -10 -19  64 NE14      30.57R WCI -32
GRAND FRKS NWS   N/A    -11 N/A N/A N14         N/A  WCI -33
DEVILS LAKE    MOCLDY   -11 -22  58 NE12      30.50R WCI -31
FARGO          CLOUDY    -3 -12  65 N21       30.46R WCI -26
WAHPETON ARPT  PTSUNNY    1  -8  66 N20G28    30.39R WCI -20
$$

 ***** WEATHER ACROSS CENTRAL AND WESTERN NORTH DAKOTA  *****

CITY           SKY/WX    TMP DP  RH WIND       PRES   REMARKS
BISMARCK       LGT SNOW  -5 -11  75 N12       30.47R WCI -23
MINOT          MOCLDY    -9 -18  64 N12       30.51S WCI -28
JAMESTOWN      CLOUDY    -6 -14  68 N20       30.44R WCI -30
MINOT AFB      PTCLDY    -9 -17  68 N8        30.52S WCI -25
GARRISON         N/A     -7 -15  68 N7        30.47R WCI -21
WILLISTON      MOCLDY    -4 -12  68 NE5       30.50S WCI -15
DICKINSON      LGT SNOW  -3  -9  75 N8        30.36R WCI -18
HETTINGER      LGT SNOW  -3  -8  79 N15       30.34R WCI -23
$$

 *****  OTHER AIRPORT OBSERVATIONS IN OUR AREA  *****

CITY           SKY/WX    TMP DP  RH WIND       PRES   REMARKS
WALHALLA         N/A    -11 -18  70 NW10      30.62S WCI -30
GRAFTON AIRPOR NOT AVBL
VALLEY CITY AR CLOUDY    -4 -13  65 N15G23    30.43S WCI -25
CANDO          CLOUDY   -13 -20  70 N12       30.54R WCI -33
CAVALIER APRT  FAIR     -11 -18  70 N8        30.62R WCI -28
GWINNER        CLOUDY     0  -9  65 N24       30.39S WCI -24
ROLLA          CLOUDY   -13 -22  64 N12       30.50S WCI -33
 ***** THE ABOVE OBSERVATIONS ARE NON NWS ARE NOT QUALITY
       CONTROLLED AND MAY MIS-REPORT RAIN FOR SNOW...
$$

  *****  WEATHER ACROSS NORTHERN MINNESOTA  *****

CITY           SKY/WX    TMP DP  RH WIND       PRES   REMARKS
FLAG ISLAND    MOCLDY   -17 -24  70 NW10      30.52S WCI -37
WARROAD        MOCLDY   -17 -24  70 W5        30.53R WCI -29
ROSEAU         PTCLDY   -15 -20  76 NW5       30.55R WCI -27
HALLOCK        MOCLDY   -15 -22  70 N12       30.59S WCI -36
THF RVR FALLS  PTCLDY    -9 -15  77 N13       30.50R WCI -30
BAUDETTE       MOCLDY   -15 -21  74 NW3       30.49S
WASKISH        MOCLDY   -15 -18  84 CALM      30.47S
CROOKSTON      PTCLDY    -9 -15  77 N13G20    30.55R WCI -30
STEPHEN NDAWN    N/A    -13 -20  70 N14         N/A  WCI -35
GREENBUSH NDAW   N/A    -15 -22  70 N10         N/A  WCI -35
$$
  *****  WEATHER ACROSS CENTRAL AND WEST MINNESOTA  *****

CITY           SKY/WX    TMP DP  RH WIND       PRES   REMARKS
FOSSTON        PTCLDY    -9 -15  77 N13       30.45R WCI -30
BEMIDJI        MOCLDY    -8 -15  74 N7        30.41R WCI -23
PARK RAPIDS    MOCLDY    -2 -11  65 N13       30.35R WCI -20
ELBOW LAKE     CLOUDY     5  -3  68 N13G22    30.30R WCI -11
WADENA         MOCLDY     0  -8  71 NE15      30.32R WCI -20
DETROIT LAKES  PTCLDY     1  -8  66 NE10      30.37S WCI -14
MOORHEAD       PTCLDY     0  -9  65 MISG      30.45S
FERGUS FALLS   MOCLDY     3  -8  60 NE13G20   30.38R WCI -14
MORRIS MN      CLOUDY    10   0  61 N16       30.27R WCI  -7
STAPLES        FAIR       1  -8  66 N9        30.31S WCI -14
$$
  *****  WEATHER ELSEWHERE ACROSS MINNESOTA  *****

CITY           SKY/WX    TMP DP  RH WIND       PRES   REMARKS
DULUTH         FLURRIES   0  -8  69 N9        30.29F WCI -15
INTRNTL FALLS  MOCLDY   -18 -21  87 CALM      30.47R
ELY            MOCLDY   -11 -17  77 NE3       30.39F
CLOQUET        CLOUDY     0  -9  65 N6        30.31F WCI -12
WHEATON        MOCLDY     1  -4  78 N17G26    30.36R WCI -19
BRAINERD       MOCLDY     2  -8  63 NE14      30.32S WCI -16
HIBBING        CLOUDY    -5 -15  62 NE5       30.37S WCI -16
ALEXANDRIA     CLOUDY     8  -2  63 NE13G22   30.25S WCI  -8
SAINT CLOUD    CLOUDY    12   1  61 NE12      30.24F WCI  -2
MINNEAPOLIS    LGT SNOW  17  10  74 NE16G23   30.20S WCI   2
$$

  *****  WEATHER ACROSS SOUTH DAKOTA  *****

CITY           SKY/WX    TMP DP  RH WIND       PRES   REMARKS
SIOUX FALLS    LGT SNOW  18  14  84 NE24G37   30.04S FOG     WCI   0
BROOKINGS      NOT AVBL
WATERTOWN      LGT SNOW   3  -3  76 N18G30    30.18S WCI -17
HURON          LGT SNOW   3  -1  83 N24G31    30.24R FOG     WCI -20
SISSETON         N/A      0  -6  76 N23       30.34R WCI -23
ABERDEEN       LGT SNOW   1  -7  68 N23G30    30.35R WCI -22
MITCHELL       LGT SNOW  10   7  87 N22       30.18R VSB 1   WCI -10
PIERRE         LGT SNOW   5   1  83 N16       30.28R FOG     WCI -14
MOBRIDGE       LGT SNOW   0  -7  72 N17       30.34R WCI -21
RAPID CITY     CLOUDY     6   2  83 N14       30.23R WCI -11
$$

  *****  SOME WEATHER IN NEARBY STATES *****

CITY           SKY/WX    TMP DP  RH WIND       PRES   REMARKS
GLASGOW MT     LGT SNOW   0  -5  79 NE5       30.47S WCI -10
GREAT FALLS MT CLOUDY    -2  -3  96 SE5       30.33F WCI -12
CHEYENNE WY    LGT SNOW  18  13  80 N20G31    29.99R WCI   2
SCOTTSBLUFF NE CLOUDY    24  19  81 N14       30.09R WCI  12
OMAHA NE       LGT SNOW  33  32  96 NE5       29.82F VSB 1
DES MOINES IA  LGT SNOW  33  31  92 E7        29.84F FOG
DAVENPORT IA   SNOW      32  30  92 E12       29.95F VSB 1/2 WCI  23
CHICAGO IL     LGT SNOW  31  29  92 E9        30.07F VSB 3/4 WCI  23
EAU CLAIRE WI  LGT SNOW  16   9  74 NE14      30.20F WCI   2
LA CROSSE WI   LGT SNOW  25  21  85 N10       30.12F FOG     WCI  15
$$

  *****  SOME NATIONAL WEATHER *****

CITY           SKY/WX    TMP DP  RH WIND       PRES   REMARKS
LA GUARDIA NY  PTCLDY    24   8  50 W9        30.20S WCI  14
RALEIGH NC     CLOUDY    36  17  46 SW3       30.27S
ATLANTA GA     CLOUDY    43  24  47 SE6       30.21F
NEW ORLEANS LA CLOUDY    61  53  75 SE12      30.04F
OKLAHOMA CITY  LGT RAIN  46  44  93 SW8       29.82S FOG
ALBUQUERQUE NM PTCLDY    37  32  82 N6        29.99S
SALT LAKE CITY CLEAR     30  27  88 CALM      30.19R
LOS ANGELES CA CLEAR     55  53  93 CALM      30.01R
BOISE ID       CLEAR     32  26  78 SE8       30.19F WCI  25
SEATTLE WA     CLOUDY    42  39  89 CALM      30.08F
$$

*** WEATHER ACROSS MANITOBA...SASKATCHEWAN AND ONTARIO ***
                ***ONTARIO***

CITY           SKY/WX    TMP DP  RH WIND       PRES   REMARKS
GERALDTON      CLEAR    -33 -38  75 SW5       30.40R WCI -48
THUNDER BAY    CLEAR    -17 -22  76 NW3       30.51S
SIOUX LOOKOUT  CLEAR    -29 -35  75 N2        30.45S
TORONTO        FLURRIES  25  19  80 N9        30.17R WCI  15
BIG TROUT LK   CLEAR    -26 -31  75 W10       30.37S WCI -48
PICKLE LAKE    NOT AVBL
DRYDEN         CLEAR    -20 -24  83 NW3       30.45S
KENORA         PTCLDY   -20 -26  76 NW6       30.48S WCI -36
$$
                *** MANITOBA***

CITY           SKY/WX    TMP DP  RH WIND       PRES   REMARKS
BRANDON        MOCLDY   -17 -24  70 W2        30.57F
DAUPHIN        CLEAR    -20 -27  69 W10       30.60S WCI -41
ISLAND LAKE    CLEAR    -24 -31  69 W7        30.47S WCI -42
PILOT MOUND      N/A    -18 -26  69 N3          N/A
THE PAS        CLEAR    -22 -27  76 CALM      30.54F
THOMPSON       NOT AVBL
WINNIPEG       MOCLDY   -17 -24  70 NW6       30.64S WCI -31
LYNN LAKE      CLEAR    -26 -31  75 W8        30.36F WCI -45
CHURCHILL      CRYSTALS -24 -31  69 NW15      30.30S WCI -50
GILLAM         CLEAR    -22 -31  63 W14       30.37S WCI -47
$$
                ***SASKATCHEWAN***

CITY           SKY/WX    TMP DP  RH WIND       PRES   REMARKS
ESTEVAN        PTCLDY    -9 -15  77 E3        30.50F
KINDERSLEY     CLEAR    -15 -18  84 S6        30.42S WCI -29
LLOYDMINSTER   CLOUDY     0  -6  78 SW6       30.36F WCI -12
PRINCE ALBERT  CLEAR    -26 -31  75 S3        30.50F
REGINA         PTCLDY    -9 -13  84 NW2       30.50F
YORKTON        CLOUDY   -17 -24  70 W5        30.53S WCI -29
N. BATTLEFORD  CLEAR     -6  -9  84 S3        30.47F
LA RONGE       CLEAR    -33 -38  75 CALM      30.47S
SASKATOON      PTCLDY    -9 -15  77 SW8       30.52F WCI -26
SWIFT CURRENT  CLEAR     -6 -11  77 SW9       30.37F WCI -22
$$
NOTE: THESE ARE AUTOMATED STATIONS WITH LIMITED QUALITY CONTROL
      "FAIR" INDICATES FEW OR NO CLOUDS BELOW 12,000 FEET WITH NO
      SIGNIFICANT WEATHER AND/OR OBSTRUCTIONS TO VISIBILITY.
      SKY/WX - SKY CONDITION AND SIGNIFICANT WEATHER.
      TMP - AIR TEMPERATURE.    DP   - DEWPOINT TEMPERATURE.
      RH  - RELATIVE HUMIDITY.  PRES - PRESSURE.
      HX  - HEAT INDEX.         WCI  - WIND CHILL INDEX.
$



USA.gov is the U.S. government's official web portal to all federal, state and local government web resources and services.